Location: Unspecified
(41.5000°N, 0.0000°E)
Time: 15:31:47
(UTC+00:00)

Vanguard 3 - Pass Details

Date: 25 June 2019
Orbit: 508 x 3263 km, 33.3° (Epoch: 21 August)

Event Time Altitude Azimuth Distance (km) Brightness Sun altitude
Rises 14:58:40 0° 272° (W) 4,934 11.8 49.2°
Reaches altitude 10° 15:03:05 10° 262° (W) 3,433 11.3 48.4°
Maximum altitude 15:09:33 27° 209° (SSW) 1,754 9.7 47.2°
Drops below altitude 10° 15:13:52 10° 152° (SSE) 2,225 9.4 46.4°
Sets 15:16:07 0° 138° (SE) 2,935 9.8 46.0°
